Meteo pe oră la Alicun

Astăzi, 21 Ianuarie, Joi

Timp Temperatura Precipitaţii Vânt Presiune Umiditate
00:00 +5°C° 0 mm 4 m/s 695 mmHg 92%
01:00 +6°C° 0 mm 4 m/s 695 mmHg 92%
02:00 +6°C° 0 mm 4 m/s 695 mmHg 91%
03:00 +6°C° 0 mm 4 m/s 695 mmHg 91%
04:00 +6°C° 0 mm 4 m/s 696 mmHg 91%
05:00 +6°C° 0 mm 4 m/s 696 mmHg 91%
06:00 +8°C° 0 mm 3 m/s 696 mmHg 92%
07:00 +7°C° 0.1 mm 4 m/s 697 mmHg 91%
08:00 +7°C° 0.1 mm 4 m/s 697 mmHg 90%
09:00 +7°C° 0.1 mm 4 m/s 697 mmHg 88%
10:00 +8°C° 0.1 mm 5 m/s 697 mmHg 83%
11:00 +9°C° 0.1 mm 6 m/s 698 mmHg 78%
12:00 +10°C° 0.1 mm 6 m/s 698 mmHg 73%
13:00 +10°C° 0 mm 7 m/s 697 mmHg 71%
14:00 +10°C° 0 mm 7 m/s 697 mmHg 70%
15:00 +11°C° 0 mm 7 m/s 696 mmHg 68%
16:00 +10°C° 0 mm 6 m/s 696 mmHg 73%
17:00 +10°C° 0 mm 5 m/s 696 mmHg 78%
18:00 +10°C° 0 mm 4 m/s 696 mmHg 83%
19:00 +10°C° 0 mm 4 m/s 696 mmHg 85%
20:00 +8°C° 0 mm 5 m/s 696 mmHg 86%
21:00 +8°C° 0 mm 5 m/s 696 mmHg 88%
22:00 +8°C° 0 mm 5 m/s 696 mmHg 87%
23:00 +8°C° 0 mm 5 m/s 696 mmHg 86%

Mâine, 22 Ianuarie, Vineri

Timp Temperatura Precipitaţii Vânt Presiune Umiditate
00:00 +7°C° 0 mm 5 m/s 695 mmHg 85%
01:00 +8°C° 0.1 mm 4 m/s 695 mmHg 84%
02:00 +8°C° 0.1 mm 4 m/s 694 mmHg 82%
03:00 +9°C° 0.1 mm 3 m/s 694 mmHg 81%
04:00 +8°C° 0.5 mm 4 m/s 694 mmHg 84%
05:00 +9°C° 0.5 mm 5 m/s 694 mmHg 87%
06:00 +9°C° 0.5 mm 6 m/s 693 mmHg 90%
07:00 +9°C° 0.1 mm 7 m/s 694 mmHg 89%
08:00 +9°C° 0.1 mm 7 m/s 694 mmHg 88%
09:00 +9°C° 0.1 mm 8 m/s 694 mmHg 87%
10:00 +8°C° 0.1 mm 9 m/s 694 mmHg 84%
11:00 +8°C° 0.1 mm 10 m/s 694 mmHg 81%
12:00 +8°C° 0.1 mm 11 m/s 694 mmHg 78%
13:00 +8°C° 0.1 mm 11 m/s 694 mmHg 76%
14:00 +7°C° 0.1 mm 11 m/s 694 mmHg 74%
15:00 +7°C° 0.1 mm 11 m/s 694 mmHg 72%
16:00 +6°C° 0.3 mm 10 m/s 694 mmHg 76%
17:00 +6°C° 0.3 mm 8 m/s 694 mmHg 80%
18:00 +5°C° 0.3 mm 7 m/s 695 mmHg 84%
19:00 +5°C° 0.1 mm 7 m/s 695 mmHg 85%
20:00 +4°C° 0.1 mm 7 m/s 696 mmHg 86%
21:00 +4°C° 0.1 mm 6 m/s 696 mmHg 87%
22:00 +4°C° 0 mm 6 m/s 696 mmHg 88%
23:00 +3°C° 0 mm 6 m/s 696 mmHg 89%

Poimâine, 23 Ianuarie, Sâmbătă

Timp Temperatura Precipitaţii Vânt Presiune Umiditate
00:00 +3°C° 0 mm 6 m/s 696 mmHg 91%
01:00 +3°C° 0 mm 6 m/s 696 mmHg 91%
02:00 +2°C° 0 mm 6 m/s 696 mmHg 91%
03:00 +2°C° 0 mm 5 m/s 696 mmHg 91%
04:00 +2°C° 0 mm 5 m/s 696 mmHg 91%
05:00 +2°C° 0 mm 5 m/s 696 mmHg 91%
06:00 +1°C° 0 mm 5 m/s 696 mmHg 91%
07:00 +2°C° 0 mm 5 m/s 696 mmHg 87%
08:00 +3°C° 0 mm 5 m/s 697 mmHg 84%
09:00 +4°C° 0 mm 6 m/s 697 mmHg 80%
10:00 +4°C° 0 mm 6 m/s 697 mmHg 77%
11:00 +5°C° 0 mm 6 m/s 697 mmHg 74%
12:00 +6°C° 0 mm 7 m/s 697 mmHg 70%
13:00 +6°C° 0 mm 7 m/s 696 mmHg 71%
14:00 +6°C° 0 mm 7 m/s 696 mmHg 71%
15:00 +8°C° 0 mm 6 m/s 695 mmHg 71%
16:00 +7°C° 0 mm 6 m/s 695 mmHg 75%
17:00 +7°C° 0 mm 5 m/s 695 mmHg 79%
18:00 +7°C° 0 mm 4 m/s 694 mmHg 83%
19:00 +7°C° 0.1 mm 5 m/s 694 mmHg 84%
20:00 +7°C° 0.1 mm 5 m/s 694 mmHg 85%
21:00 +8°C° 0.1 mm 6 m/s 694 mmHg 86%
22:00 +8°C° 0.2 mm 6 m/s 694 mmHg 87%
23:00 +8°C° 0.2 mm 6 m/s 693 mmHg 89%

24 Ianuarie, Duminică

Timp Temperatura Precipitaţii Vânt Presiune Umiditate
00:00 +8°C° 0.2 mm 7 m/s 693 mmHg 90%
01:00 +8°C° 0.3 mm 7 m/s 692 mmHg 91%
02:00 +9°C° 0.3 mm 7 m/s 692 mmHg 92%
03:00 +9°C° 0.3 mm 8 m/s 692 mmHg 93%
04:00 +9°C° 0.4 mm 7 m/s 692 mmHg 94%
05:00 +9°C° 0.4 mm 7 m/s 692 mmHg 95%
06:00 +9°C° 0.4 mm 7 m/s 693 mmHg 95%
07:00 +9°C° 0.1 mm 7 m/s 693 mmHg 92%
08:00 +8°C° 0.1 mm 6 m/s 694 mmHg 89%
09:00 +8°C° 0.1 mm 6 m/s 694 mmHg 86%
10:00 +9°C° 0 mm 6 m/s 694 mmHg 75%
11:00 +10°C° 0 mm 6 m/s 695 mmHg 64%
12:00 +11°C° 0 mm 6 m/s 695 mmHg 54%
13:00 +11°C° 0 mm 6 m/s 695 mmHg 53%
14:00 +11°C° 0 mm 6 m/s 695 mmHg 51%
15:00 +12°C° 0 mm 5 m/s 695 mmHg 50%
16:00 +11°C° 0 mm 4 m/s 695 mmHg 58%
17:00 +9°C° 0 mm 3 m/s 694 mmHg 67%
18:00 +8°C° 0 mm 2 m/s 694 mmHg 76%
19:00 +8°C° 0 mm 2 m/s 695 mmHg 77%
20:00 +8°C° 0 mm 1 m/s 695 mmHg 79%
21:00 +8°C° 0 mm 1 m/s 695 mmHg 81%
22:00 +8°C° 0 mm 1 m/s 695 mmHg 82%
23:00 +8°C° 0 mm 1 m/s 695 mmHg 84%

25 Ianuarie, Luni

Timp Temperatura Precipitaţii Vânt Presiune Umiditate
00:00 +7°C° 0 mm 1 m/s 696 mmHg 85%
01:00 +7°C° 0 mm 1 m/s 696 mmHg 85%
02:00 +7°C° 0 mm 1 m/s 696 mmHg 86%
03:00 +7°C° 0 mm 1 m/s 696 mmHg 87%
04:00 +7°C° 0 mm 1 m/s 696 mmHg 88%
05:00 +7°C° 0 mm 1 m/s 696 mmHg 89%
06:00 +7°C° 0 mm 1 m/s 696 mmHg 90%
07:00 +7°C° 0 mm 1 m/s 696 mmHg 87%
08:00 +8°C° 0 mm 1 m/s 697 mmHg 84%
09:00 +9°C° 0 mm 1 m/s 698 mmHg 81%
10:00 +10°C° 0 mm 1 m/s 698 mmHg 75%
11:00 +10°C° 0 mm 2 m/s 698 mmHg 69%
12:00 +13°C° 0 mm 2 m/s 699 mmHg 63%
13:00 +12°C° 0 mm 3 m/s 698 mmHg 63%
14:00 +12°C° 0 mm 3 m/s 698 mmHg 64%
15:00 +12°C° 0 mm 4 m/s 698 mmHg 64%
16:00 +11°C° 0 mm 3 m/s 698 mmHg 70%
17:00 +10°C° 0 mm 2 m/s 698 mmHg 77%
18:00 +10°C° 0 mm 1 m/s 699 mmHg 84%
19:00 +10°C° 0 mm 1 m/s 699 mmHg 85%
20:00 +10°C° 0 mm 1 m/s 699 mmHg 87%
21:00 +10°C° 0 mm 1 m/s 700 mmHg 89%
22:00 +10°C° 0 mm 1 m/s 700 mmHg 89%
23:00 +10°C° 0 mm 1 m/s 700 mmHg 89%

26 Ianuarie, Marţi

Timp Temperatura Precipitaţii Vânt Presiune Umiditate
00:00 +10°C° 0 mm 1 m/s 700 mmHg 89%
01:00 +10°C° 0.1 mm 1 m/s 700 mmHg 89%
02:00 +10°C° 0.1 mm 1 m/s 700 mmHg 89%
03:00 +10°C° 0.1 mm 1 m/s 700 mmHg 90%
04:00 +10°C° 0 mm 1 m/s 700 mmHg 91%
05:00 +9°C° 0 mm 1 m/s 700 mmHg 92%
06:00 +9°C° 0 mm 1 m/s 700 mmHg 93%
07:00 +10°C° 0 mm 1 m/s 700 mmHg 91%
08:00 +11°C° 0 mm 1 m/s 701 mmHg 89%
09:00 +11°C° 0 mm 1 m/s 702 mmHg 87%
10:00 +12°C° 0 mm 2 m/s 702 mmHg 83%
11:00 +13°C° 0 mm 2 m/s 702 mmHg 79%
12:00 +13°C° 0 mm 3 m/s 702 mmHg 75%
13:00 +14°C° 0 mm 3 m/s 702 mmHg 74%
14:00 +14°C° 0 mm 3 m/s 702 mmHg 73%
15:00 +15°C° 0 mm 2 m/s 701 mmHg 72%
16:00 +14°C° 0 mm 2 m/s 701 mmHg 77%
17:00 +13°C° 0 mm 2 m/s 701 mmHg 82%
18:00 +12°C° 0 mm 1 m/s 702 mmHg 87%
19:00 +12°C° 0 mm 1 m/s 702 mmHg 87%
20:00 +12°C° 0 mm 1 m/s 702 mmHg 88%
21:00 +12°C° 0 mm 1 m/s 703 mmHg 88%
22:00 +12°C° 0 mm 1 m/s 702 mmHg 89%
23:00 +11°C° 0 mm 1 m/s 702 mmHg 90%
Arată mai mult

Formular de consimțământ

Meteoprog și furnizorii noștri de servicii pot stoca și accesa date personale, precum cookies, identificatori de dispozitiv sau alte tehnologii similare pe dispozitivul dumneavoastră și procesa astfel de date pentru a personaliza conținutul și reclamele, dar și pentru a oferi caracteristici de social media și pentru a analiza traficul.

  • Stocarea și/sau accesarea informațiilor pe dispozitivul dumneavoastră

    Cookies, identificatori de dispozitiv sau alte informații pot fi stocate sau accesate pe dispozitiv în scopurile indicate mai sus.

  • Reclame și conținut personalizat, evaluarea reclamelor și a conținutului, informații despre audiențe și dezvoltarea produselor

    Reclamele și conținutul pot fi personalizate pe baza unui profil. Pot fi adăugate date suplimentare pentru a personaliza mai bine reclamele și conținutul. Performanța reclamelor și conținutului poate fi măsurată. Pot fi obținute informații despre utilizatorii care au văzut reclamele și conținutul. Aceste date pot fi utilizate pentru a dezvolta sau îmbunătăți experiența utilizatorilor, sistemele și software-ul.

Dând clic pe ‘Sunt de acord’, permiteți utilizarea cookie-urilor menționate, a identificatorilor de dispozitiv, balizelor web sau altor tehnologii similare. Setările pot fi modificate din browser-ul dispozitivului dumneavoastră.

În anumite scopuri, interesele legitime pot prima asupra consimțământului. Puteți citi mai multe informații în acest sens în Politica privind Confidențialitatea Datelor și Cookie.